Flag Weather past 2 weeks in Amarillo, Texas, U.S.A.

Now
44 °F

Clear.


Feels Like: 37 °F
Forecast: 38 / 76 °F
Wind: 16 mph from Southwest

Location: Amarillo International Airport

Current Time: Nov 28, 2014 at 1:04:37 AM

Latest Report: Nov 27, 2014 at 11:53 PM


Visibility: 10 mi

Pressure: 30.13 "Hg

Humidity: 58%

Dew point: 30 °F

Location of AmarilloLocation

Historic Weather in Amarillo — Graph

°F

Amarillo temperature yesterday

Maximum temperature yesterday: 60 °F (at 3:53 PM)
Minimum temperature yesterday: 26 °F (at 6:53 AM)
Average temperature yesterday: 42 °F

Past Weeks' High & Low Weather Summary

 TemperatureHumidityPressure
High70 °F (Nov 22, 2:53 PM)93% (Nov 21, 2:53 AM)30.67 "Hg (Nov 21, 2:53 AM)
Low10 °F (Nov 17, 7:53 AM)15% (Nov 22, 3:53 PM)29.36 "Hg (Nov 23, 2:53 AM)
Average36 °F58%30.12 "Hg
* Reported Nov 12 11:53 PM — Nov 27 11:53 PM, Amarillo, Weather by CustomWeather, © 2014

Note: Actual official high and low records may vary slightly from our data, if they occured in-between our weather recording intervals... More about our weather records

Advertising

Amarillo weather history for previous 24 hours

 ConditionsComfort  
Time TempWeatherWind HumidityBarometerVisibility
11:53 PM
Nov 27
44 °FClear.16 mph58%30.13 "Hg10 mi
10:53 PM42 °FClear.14 mph62%30.17 "Hg10 mi
9:53 PM42 °FClear.14 mph62%30.21 "Hg10 mi
8:53 PM43 °FClear.13 mph60%30.24 "Hg10 mi
7:53 PM47 °FClear.13 mph52%30.24 "Hg10 mi
6:53 PM49 °FClear.13 mph48%30.24 "Hg10 mi
5:53 PM53 °FClear.15 mph41%30.22 "Hg10 mi
4:53 PM58 °FSunny.14 mph35%30.22 "Hg10 mi
3:53 PM60 °FSunny.17 mph32%30.22 "Hg10 mi
2:53 PM58 °FSunny.20 mph33%30.24 "Hg10 mi
1:53 PM56 °FSunny.22 mph36%30.29 "Hg10 mi
12:53 PM54 °FSunny.18 mph38%30.33 "Hg10 mi
11:53 AM50 °FSunny.21 mph43%30.39 "Hg10 mi
10:53 AM45 °FSunny.20 mph48%30.42 "Hg10 mi
9:53 AM39 °FSunny.21 mph53%30.45 "Hg10 mi
8:53 AM33 °FSunny.15 mph61%30.45 "Hg10 mi
7:53 AM27 °FSunny.15 mph75%30.46 "Hg10 mi
6:53 AM26 °FClear.12 mph77%30.47 "Hg10 mi
5:53 AM30 °FClear.14 mph64%30.44 "Hg10 mi
4:53 AM31 °FClear.14 mph64%30.42 "Hg10 mi
3:53 AM32 °FClear.13 mph64%30.41 "Hg10 mi
2:53 AM31 °FClear.13 mph64%30.41 "Hg10 mi
1:53 AM28 °FClear.10 mph72%30.43 "Hg10 mi
Weather by CustomWeather, © 2014

See weather overviewHow to use our weather pages